TimeMST,TemperatureF,Dew PointF,Humidity,Sea Level PressureIn,VisibilityMPH,Wind Direction,Wind SpeedMPH,Gust SpeedMPH,PrecipitationIn,Events,Conditions,WindDirDegrees,DateUTC
12:53 AM,73.9,48.9,41,29.87,10.0,Calm,Calm,-,N/A,,Clear,0,2013-09-07 07:53:00
1:53 AM,73.9,46.9,38,29.86,10.0,Calm,Calm,-,N/A,,Clear,0,2013-09-07 08:53:00
2:53 AM,73.0,46.9,39,29.86,10.0,SSW,3.5,-,N/A,,Clear,210,2013-09-07 09:53:00
3:53 AM,73.0,48.0,41,29.86,10.0,Calm,Calm,-,N/A,,Clear,0,2013-09-07 10:53:00
4:53 AM,72.0,46.9,41,29.87,10.0,West,3.5,-,N/A,,Clear,280,2013-09-07 11:53:00
5:53 AM,73.0,48.0,41,29.88,10.0,Calm,Calm,-,N/A,,Clear,0,2013-09-07 12:53:00
6:53 AM,71.1,50.0,47,29.91,10.0,Calm,Calm,-,N/A,,Clear,0,2013-09-07 13:53:00
7:53 AM,75.9,48.9,38,29.91,10.0,ESE,3.5,-,N/A,,Clear,120,2013-09-07 14:53:00
8:53 AM,80.1,50.0,35,29.92,10.0,Calm,Calm,-,N/A,,Clear,0,2013-09-07 15:53:00
9:53 AM,82.0,51.1,34,29.92,10.0,North,5.8,-,N/A,,Clear,360,2013-09-07 16:53:00
10:53 AM,86.0,53.1,32,29.90,10.0,NNE,4.6,-,N/A,,Clear,20,2013-09-07 17:53:00
11:53 AM,88.0,51.1,28,29.87,10.0,North,8.1,-,N/A,,Clear,360,2013-09-07 18:53:00
12:53 PM,91.0,50.0,24,29.85,10.0,North,6.9,-,N/A,,Clear,10,2013-09-07 19:53:00
1:53 PM,91.9,48.9,23,29.81,10.0,Variable,5.8,-,N/A,,Clear,0,2013-09-07 20:53:00
2:53 PM,91.9,46.0,21,29.77,10.0,WSW,4.6,-,N/A,,Clear,240,2013-09-07 21:53:00
3:53 PM,90.0,48.9,24,29.78,10.0,WSW,6.9,-,N/A,,Partly Cloudy,250,2013-09-07 22:53:00
4:11 PM,84.2,51.8,33,30.00,10.0,SSW,18.4,26.5,N/A,Thunderstorm,Mostly Cloudy,210,2013-09-07 23:11:00
4:35 PM,82.4,51.8,35,29.99,10.0,SW,12.7,23.0,0.00,Rain,Light Rain,230,2013-09-07 23:35:00
4:53 PM,82.9,50.0,32,29.80,10.0,SW,9.2,-,0.00,,Mostly Cloudy,230,2013-09-07 23:53:00
5:19 PM,82.4,50.0,32,30.00,10.0,SSW,9.2,16.1,N/A,Thunderstorm,Partly Cloudy,200,2013-09-08 00:19:00
5:34 PM,82.4,50.0,32,30.01,10.0,SSW,10.4,19.6,N/A,,Mostly Cloudy,210,2013-09-08 00:34:00
5:53 PM,82.0,51.1,34,29.83,10.0,SSE,11.5,-,N/A,,Overcast,160,2013-09-08 00:53:00
6:53 PM,81.0,51.1,35,29.84,10.0,South,6.9,-,N/A,,Scattered Clouds,170,2013-09-08 01:53:00
7:53 PM,70.0,62.1,76,29.94,4.0,South,4.6,-,0.05,Rain,Light Rain,180,2013-09-08 02:53:00
8:53 PM,71.1,60.1,68,29.94,10.0,NW,5.8,-,0.02,,Overcast,310,2013-09-08 03:53:00
9:53 PM,72.0,57.9,61,29.94,10.0,NW,3.5,-,N/A,,Partly Cloudy,320,2013-09-08 04:53:00
10:53 PM,72.0,55.9,57,29.91,10.0,NW,5.8,-,N/A,,Scattered Clouds,320,2013-09-08 05:53:00
11:53 PM,72.0,57.0,59,29.90,10.0,Calm,Calm,-,N/A,,Clear,0,2013-09-08 06:53:00